Location: Chamerau
(49.1969°N, 12.7525°E)
Time: 09:26:50
(UTC+00:00)

USA 238 - Pass Details

Date: 18 September 2020
Orbit: 1006 x 1206 km, 63.4° (Epoch: 25 October)

Event Time Altitude Azimuth Distance (km) Brightness Sun altitude
Rises 19:32:36 0° 317° (NW) 3,943 8.0 -22.2°
Reaches altitude 10° 19:35:15 10° 314° (NW) 3,010 7.1 -22.6°
Maximum altitude 19:42:22 65° 235° (SW) 1,266 4.1 -23.6°
Enters shadow 19:45:44 34° 166° (SSE) 1,826 4.5 -24.0°
